SCP
0 0 0 -0 -0 -0 -0 0 0 0 0 0 0 0 0 0 0 0 0 0 0 0 0 0 0 0 0 0 0 0 0 0 0 0 0 0 0 0 0 0 0 0 0 0
0 0 0 0 -0 -0 0 0 0 0 0 0 0 0 0 0 0 0 0 0 0 0 0 0 0 0 0 0 0 0 0 0 0 0 0 0 0 0 0 0 0 0 0 0
0 0 0 0 -0 0 -0 0 0 0 0 0 0 0 0 0 0 0 0 0 0 0 0 0 0 0 0 0 0 0 0 0 0 0 0 0 0 0 0 0 0 0 0 0
0 0 0 0 0 0 -0 0 0 0 0 0 0 0 0 0 0 0 0 0 0 0 0 0 0 0 0 0 0 0 0 0 0 0 0 0 0 0 0 0 0 0 0 0
0 0 0 0 0 0 0 0 0 0 0 0 0 0 0 0 0 0 0 0 0 0 0 0 0 0 0 0 0 0 0 0 0 0 0 0 0 0 0 0 0 0 0 0
0 0 0 0 0 0 0 0 0 0 0 0 0 0 0 0 0 0 0 0 0 0 0 0 0 0 0 0 0 0 0 0 0 0 0 -0 0 0 0 0 0 0 0 0
0 0 0 0 0 0 0 -0 -0 0 0 0 0 0 0 0 0 0 0 0 0 0 0 0 0 0 0 0 0 0 0 0 0 0 0 0 0 0 0 0 0 0 0 0
0 0 0 0 0 0 0 0 0 0 0 0 0 0 0 0 0 0 0 0 0 0 0 0 0 0 0 0 0 0 0 0 0 0 0 -0 0 0 0 0 0 0 0 0
0 0 0 0 0 0 0 0 0 0 0 0 0 0 0 0 0 0 0 0 0 0 0 0 0 0 0 0 0 0 0 0 0 0 0 0 0 0 0 0 0 0 0 0
0 0 0 0 0 0 0 0 0 0 0 0 0 0 0 0 0 0 0 0 0 0 0 0 0 0 0 0 0 0 0 0 0 0 0 0 0 0 0 0 0 0 0 0
0 0 0 0 0 0 0 0 0 0 0 0 0 0 0 0 0 0 0 0 0 0 0 0 0 0 0 0 0 0 0 0 0 0 0 0 0 0 0 0 0 0 0 0
0 0 0 0 0 0 0 0 0 0 0 0 0 0 0 0 0 0 0 0 0 0 0 0 0 0 0 0 0 0 0 0 0 0 0 0 0 0 0 0 0 -0 0 0
0 0 0 0 0 0 0 0 0 0 0 0 0 0 0 0 0 0 0 0 0 0 0 0 0 0 0 0 0 0 0 0 0 0 0 0 -0 0 0 0 -0 -0 0 0
0 0 0 0 0 0 0 0 0 0 0 0 0 0 0 0 0 0 0 0 0 0 0 0 0 0 0 0 0 0 0 0 0 0 0 0 0 0 0 -0 -0 -0 0 0
0 0 0 0 0 0 0 0 0 0 0 0 0 0 0 0 0 0 0 0 0 0 0 0 0 0 0 0 0 0 0 0 0 0 0 0 0 0 -0 -0 -0 0 0 0
0 0 0 0 0 0 0 0 0 0 0 0 0 0 0 0 0 0 0 0 0 0 0 0 0 0 0 0 0 0 0 0 0 0 0 0 0 0 -0 -0 -0 0 -0 0
0 0 0 0 0 0 0 0 0 0 0 0 0 0 0 0 0 0 0 0 0 0 0 0 0 0 0 0 0 0 0 0 0 0 0 0 0 0 0 0 -0 -0 0 0
0 0 0 0 0 0 0 0 0 0 0 0 0 0 0 0 0 0 0 0 0 0 0 0 0 0 0 0 0 0 0 0 0 0 0 0 0 0 0 -0 -0 -0 -0 -0
0 0 0 0 0 0 0 0 0 0 0 0 0 0 0 0 0 0 0 0 0 0 0 0 0 0 0 0 0 0 0 0 0 0 0 0 0 0 0 0 -0 -0 -0 -0
0 0 0 0 0 0 0 0 0 0 0 0 0 0 0 0 0 0 0 0 0 0 0 0 0 0 0 0 0 0 0 0 0 0 0 0 0 0 -0 0 -0 0 -0 -0
0 0 0 0 0 0 0 0 0 0 0 0 0 0 0 0 0 0 0 0 0 0 0 0 0 0 0 0 0 0 0 0 0 0 0 0 -0 0 0 0 0 0 -0 -0
0 0 0 0 0 0 0 0 0 0 0 0 0 0 0 0 0 0 0 0 0 0 0 0 0 0 0 0 0 0 0 0 0 0 0 0 -0 -0 -0 -0 0 0 -0 -0
0 0 0 0 0 0 0 0 0 0 0 0 0 0 0 0 0 0 0 0 0 0 0 0 0 0 0 0 0 0 0 0 0 0 0 -0 0 0 -0 0 0 0 -0 -0
0 0 0 0 0 0 0 0 0 0 0 0 0 0 0 0 0 0 0 0 0 0 0 0 0 0 0 0 0 0 0 0 0 0 -0 -0 0 0 -0 -0 0 -0 -0 -0
0 0 0 0 0 0 0 0 0 0 0 0 0 0 0 0 0 0 0 0 0 0 0 0 0 0 0 0 0 0 0 0 0 0 0 0 0 0 -0 0 -0 -0 -0 -0
0 0 0 0 0 0 0 0 0 0 0 0 0 0 0 0 0 0 0 0 0 0 0 0 0 0 0 0 0 0 0 0 -0 0 0 -0 0 0 -0 -0 0 -0 -0 -0
0 0 0 0 0 0 0 0 0 0 0 0 0 0 0 0 0 0 0 0 0 0 0 0 0 0 0 0 0 0 0 -0 -0 0 0 0 0 0 -0 -0 -0 -0 -0 0
Wind_Speed_500mb
17 20 26 31 34 34 15 15 1 23 14 7 14 8 7 8 9 10 10 11 17 12 13 12 8 11 12 17 23 14 13 7 9 22 20 17 13 16 12 5 15 14 20 33
15 16 24 29 36 37 17 9 9 22 16 7 8 13 9 13 6 15 7 10 14 9 7 3 11 10 6 19 26 17 19 4 9 3 7 3 12 13 19 20 13 30 21 23
10 14 20 25 33 34 20 7 4 20 30 23 19 12 10 8 14 12 11 8 6 4 7 11 6 7 8 9 16 7 5 5 6 9 19 19 30 33 18 14 14 27 26 41
9 10 16 21 28 32 14 11 9 9 7 20 26 15 7 9 6 9 10 8 15 10 5 3 5 10 11 16 3 5 11 6 13 19 29 31 30 36 25 20 23 13 34 38
9 10 12 18 25 26 33 9 7 15 11 7 11 7 3 11 10 10 6 7 12 9 10 10 8 12 11 5 10 14 9 7 19 19 20 31 35 23 32 31 31 29 34 38
9 6 12 15 18 21 17 17 18 5 4 4 2 4 6 13 19 10 13 16 9 11 14 12 11 9 13 14 10 8 6 8 10 7 31 35 4 22 22 23 26 28 38 27
6 12 14 16 20 18 15 13 14 7 2 5 6 11 14 15 7 12 13 10 5 6 6 4 3 5 8 11 11 9 8 10 6 9 19 9 9 20 26 31 34 40 18 33
4 8 10 17 21 20 13 6 8 8 5 19 15 18 23 21 24 23 23 19 12 7 6 1 3 6 8 10 8 8 8 6 5 5 11 25 6 36 35 36 45 25 37 58
12 12 11 9 13 17 14 4 2 9 22 8 8 18 21 9 9 8 8 11 8 8 4 2 2 4 4 3 10 5 3 5 5 7 3 8 20 37 52 51 23 64 68 60
26 26 23 18 14 12 11 8 10 8 18 9 7 8 5 3 10 7 12 7 6 12 2 0 3 2 3 2 7 6 5 3 5 10 6 12 25 52 51 15 20 79 67 64
35 32 33 37 21 13 12 11 17 14 20 20 14 14 12 9 13 4 15 10 3 6 5 2 5 4 4 3 4 3 3 2 4 6 5 8 67 48 27 30 60 63 68 71
47 49 46 45 40 31 22 17 17 15 13 21 23 24 24 26 15 24 12 5 8 5 6 3 6 4 5 3 3 5 4 11 6 7 9 51 46 55 47 55 58 69 71 73
50 57 55 50 49 33 29 24 26 25 34 37 7 15 17 22 19 22 11 9 7 10 10 6 5 2 3 4 5 6 2 11 2 7 10 32 59 48 63 63 68 73 66 69
54 54 59 53 45 34 31 32 40 23 24 13 9 7 11 17 13 13 13 27 21 23 19 10 3 2 2 4 7 5 12 7 8 12 32 60 34 58 62 71 68 72 73 67
60 60 58 47 35 37 37 32 37 29 15 12 18 17 17 18 18 24 23 21 22 19 9 5 4 3 0 12 7 7 6 6 4 12 39 40 56 70 66 65 70 68 64 67
71 64 48 39 47 48 49 23 32 28 19 17 10 10 13 15 18 19 20 17 17 14 7 3 4 5 4 2 5 8 14 22 28 40 44 47 58 58 64 62 63 66 64 64
72 64 61 60 57 59 33 18 32 39 30 14 17 14 15 17 13 15 14 11 13 11 6 1 4 6 1 3 5 16 25 32 39 39 45 53 52 63 64 57 62 59 53 48
79 72 65 65 58 48 23 38 47 34 17 14 11 7 11 17 9 9 8 5 8 8 6 2 2 3 4 4 20 24 28 35 38 42 44 49 52 57 58 57 55 48 48 55
82 76 64 56 50 21 43 46 28 20 13 13 8 10 7 16 8 8 5 5 4 6 6 7 9 6 6 13 13 21 28 33 43 46 46 49 52 55 54 52 47 47 51 54
88 88 36 21 29 65 53 15 7 6 9 9 7 16 7 15 11 5 7 3 5 3 5 13 5 7 13 6 10 21 27 34 40 48 48 52 52 55 52 47 42 43 47 51
90 24 15 65 61 27 10 10 7 7 7 7 11 28 20 12 5 7 4 5 2 2 3 3 6 4 9 6 13 20 27 31 39 38 36 29 41 44 41 42 42 41 45 51
47 52 77 58 17 9 11 4 4 4 8 13 20 26 18 12 11 10 6 4 1 3 9 2 4 5 9 13 17 23 28 34 37 35 23 23 34 32 32 33 38 39 42 50
95 49 15 13 5 7 12 13 4 8 18 18 27 16 10 10 8 9 5 5 4 4 3 6 4 16 10 14 17 24 24 35 35 39 15 19 29 28 32 34 35 39 43 49
14 10 10 4 5 4 3 9 12 20 38 50 41 19 9 9 7 6 6 3 1 4 5 5 17 15 10 16 15 20 25 37 35 40 18 22 29 29 28 34 37 40 45 49
12 12 8 5 11 22 35 48 51 50 54 47 33 18 12 8 7 2 6 3 5 8 6 8 21 10 10 14 16 19 29 30 30 35 25 33 31 28 31 30 37 38 43 48
11 12 12 27 37 29 42 48 49 45 45 32 16 9 6 3 5 5 7 5 7 6 5 22 11 2 5 12 15 16 26 27 22 27 30 27 29 29 32 32 34 35 41 44
10 13 31 26 42 41 37 42 39 45 18 8 9 7 4 10 4 2 5 7 7 13 9 9 2 10 17 16 18 16 20 26 27 26 27 28 28 28 31 35 35 33 39 36
Wind_Direction_500mb
13 16 15 13 12 10 30 42 64 10 65 39 49 53 64 112 62 41 54 52 42 28 27 29 50 37 32 14 348 358 37 316 303 312 86 85 75 28 358 10 306 299 285 287
5 13 18 18 16 17 37 55 37 9 58 68 80 115 84 60 92 33 42 74 41 34 53 43 36 48 49 19 12 20 348 350 316 188 109 132 22 355 326 299 289 285 289 292
358 11 15 17 20 21 41 61 36 25 58 38 108 120 115 106 49 73 62 94 72 66 58 56 55 37 91 40 28 3 281 289 290 266 300 328 312 310 298 274 272 283 295 321
355 2 20 23 25 25 53 64 68 52 21 26 41 45 26 102 92 62 46 57 50 54 56 1 66 39 6 117 58 327 22 288 316 323 300 293 295 335 348 4 347 342 331 334
343 2 4 19 24 33 51 69 78 71 87 72 64 35 48 117 94 19 81 118 97 55 62 25 20 16 46 5 0 350 68 289 322 302 308 336 314 1 357 355 354 336 334 326
3 31 30 32 27 37 63 73 87 78 56 54 350 11 88 124 125 55 55 111 125 91 71 14 2 335 319 313 338 334 346 328 335 289 344 299 75 23 357 346 333 330 334 344
47 40 31 29 31 36 58 82 89 82 85 50 60 107 113 105 28 120 89 60 64 84 345 313 211 92 83 97 66 13 326 346 335 302 335 13 18 22 6 345 329 323 3 327
318 342 0 19 20 19 18 76 94 95 97 107 107 120 102 105 88 94 83 57 70 68 47 54 162 195 186 144 110 64 17 8 343 314 339 277 272 24 4 345 317 6 338 332
267 292 310 330 337 359 358 337 213 118 121 14 130 130 147 150 121 114 103 71 66 65 82 97 348 31 354 71 137 133 116 152 116 333 312 308 17 3 350 326 291 358 335 323
263 270 283 305 320 320 323 297 235 159 106 81 92 103 180 78 129 95 142 161 58 69 312 116 38 76 29 332 333 49 24 22 223 269 260 263 10 353 342 334 321 321 325 324
260 277 277 286 292 295 276 245 216 208 117 75 99 102 80 119 131 162 135 129 110 41 77 284 97 305 71 239 273 80 113 70 262 349 282 299 351 331 354 317 315 321 321 318
264 270 266 274 273 276 253 221 218 192 132 125 139 128 128 119 88 133 149 97 97 102 96 307 69 207 185 22 290 166 213 188 199 174 266 304 309 336 332 333 325 319 314 315
260 263 271 258 265 241 231 199 184 161 98 106 82 72 110 134 142 138 136 123 125 103 91 88 68 107 171 238 245 15 1 81 262 0 242 318 329 326 326 331 322 320 323 322
251 263 266 258 259 229 199 182 169 151 119 98 79 95 136 97 98 122 128 141 124 125 108 84 127 220 159 291 318 286 267 16 308 305 326 324 316 322 326 328 324 322 323 322
244 260 249 239 211 183 173 181 176 162 140 116 129 118 100 107 110 107 106 111 114 107 94 101 222 239 173 239 240 254 70 26 306 312 328 318 314 322 329 325 320 327 330 325
240 237 210 175 178 173 163 144 176 175 141 113 124 115 87 111 119 114 114 118 117 106 106 179 43 40 350 337 289 94 23 351 337 321 322 325 317 320 327 325 329 330 329 331
217 195 180 175 172 173 159 156 162 173 149 117 121 126 150 136 113 97 94 104 112 98 84 328 12 117 195 274 263 6 353 337 330 323 327 327 327 326 328 329 329 333 333 342
198 176 172 166 169 169 132 140 143 146 124 104 111 109 133 150 156 99 107 88 91 75 92 70 310 9 257 257 268 339 334 327 330 325 325 320 323 331 333 336 338 343 346 346
174 163 155 146 142 126 134 135 133 116 98 109 114 147 146 152 114 108 97 116 104 134 215 189 161 207 229 231 294 316 329 327 325 326 325 324 330 332 338 343 347 348 346 347
148 140 132 125 141 136 129 104 76 69 58 81 99 120 113 157 140 106 113 68 84 201 202 133 202 258 232 284 330 335 333 329 326 327 326 326 329 333 341 345 344 347 347 346
140 142 103 136 133 117 86 112 127 136 88 105 97 128 123 116 143 111 66 116 85 277 148 188 216 238 182 4 346 337 337 336 331 323 313 318 328 330 339 343 339 352 348 347
142 127 124 121 136 117 102 66 98 186 150 143 130 109 114 109 104 103 145 114 179 250 159 150 246 136 52 5 341 341 348 345 338 330 327 343 339 340 341 344 347 352 348 350
122 113 135 143 140 98 161 162 180 149 153 147 141 123 117 107 97 91 130 152 212 111 228 223 190 107 47 2 349 340 348 344 348 339 346 6 352 353 348 350 349 352 353 354
97 89 89 111 171 166 162 148 124 129 136 132 126 104 104 119 102 134 134 94 2 261 248 202 100 85 33 4 354 346 340 352 353 350 352 6 4 357 349 353 350 351 353 354
95 99 89 92 108 89 106 117 116 124 130 127 111 86 93 83 102 179 92 137 229 211 256 110 115 108 44 2 353 347 339 352 358 4 17 2 356 353 351 356 339 353 354 358
85 83 89 115 105 116 113 116 112 127 127 116 91 104 99 110 111 124 197 193 219 231 162 124 134 139 9 342 346 348 338 347 343 344 354 349 355 358 350 351 349 3 356 2
68 65 126 112 117 125 128 125 133 138 110 97 118 102 82 117 114 208 189 203 246 82 127 163 192 313 308 310 306 340 331 332 333 333 337 344 348 355 353 358 0 8 351 355
Wind_Speed_850mb
17 20 26 31 34 34 15 15 1 23 14 7 14 8 7 8 9 10 10 11 17 12 13 12 8 11 12 17 23 14 13 7 9 22 20 17 13 16 12 5 15 14 20 33
15 16 24 29 36 37 17 9 9 22 16 7 8 13 9 13 6 15 7 10 14 9 7 3 11 10 6 19 26 17 19 4 9 3 7 3 12 13 19 20 13 30 21 23
10 14 20 25 33 34 20 7 4 20 30 23 19 12 10 8 14 12 11 8 6 4 7 11 6 7 8 9 16 7 5 5 6 9 19 19 30 33 18 14 14 27 26 41
9 10 16 21 28 32 14 11 9 9 7 20 26 15 7 9 6 9 10 8 15 10 5 3 5 10 11 16 3 5 11 6 13 19 29 31 30 36 25 20 23 13 34 38
9 10 12 18 25 26 33 9 7 15 11 7 11 7 3 11 10 10 6 7 12 9 10 10 8 12 11 5 10 14 9 7 19 19 20 31 35 23 32 31 31 29 34 38
9 6 12 15 18 21 17 17 18 5 4 4 2 4 6 13 19 10 13 16 9 11 14 12 11 9 13 14 10 8 6 8 10 7 31 35 4 22 22 23 26 28 38 27
6 12 14 16 20 18 15 13 14 7 2 5 6 11 14 15 7 12 13 10 5 6 6 4 3 5 8 11 11 9 8 10 6 9 19 9 9 20 26 31 34 40 18 33
4 8 10 17 21 20 13 6 8 8 5 19 15 18 23 21 24 23 23 19 12 7 6 1 3 6 8 10 8 8 8 6 5 5 11 25 6 36 35 36 45 25 37 58
12 12 11 9 13 17 14 4 2 9 22 8 8 18 21 9 9 8 8 11 8 8 4 2 2 4 4 3 10 5 3 5 5 7 3 8 20 37 52 51 23 64 68 60
26 26 23 18 14 12 11 8 10 8 18 9 7 8 5 3 10 7 12 7 6 12 2 0 3 2 3 2 7 6 5 3 5 10 6 12 25 52 51 15 20 79 67 64
35 32 33 37 21 13 12 11 17 14 20 20 14 14 12 9 13 4 15 10 3 6 5 2 5 4 4 3 4 3 3 2 4 6 5 8 67 48 27 30 60 63 68 71
47 49 46 45 40 31 22 17 17 15 13 21 23 24 24 26 15 24 12 5 8 5 6 3 6 4 5 3 3 5 4 11 6 7 9 51 46 55 47 55 58 69 71 73
50 57 55 50 49 33 29 24 26 25 34 37 7 15 17 22 19 22 11 9 7 10 10 6 5 2 3 4 5 6 2 11 2 7 10 32 59 48 63 63 68 73 66 69
54 54 59 53 45 34 31 32 40 23 24 13 9 7 11 17 13 13 13 27 21 23 19 10 3 2 2 4 7 5 12 7 8 12 32 60 34 58 62 71 68 72 73 67
60 60 58 47 35 37 37 32 37 29 15 12 18 17 17 18 18 24 23 21 22 19 9 5 4 3 0 12 7 7 6 6 4 12 39 40 56 70 66 65 70 68 64 67
71 64 48 39 47 48 49 23 32 28 19 17 10 10 13 15 18 19 20 17 17 14 7 3 4 5 4 2 5 8 14 22 28 40 44 47 58 58 64 62 63 66 64 64
72 64 61 60 57 59 33 18 32 39 30 14 17 14 15 17 13 15 14 11 13 11 6 1 4 6 1 3 5 16 25 32 39 39 45 53 52 63 64 57 62 59 53 48
79 72 65 65 58 48 23 38 47 34 17 14 11 7 11 17 9 9 8 5 8 8 6 2 2 3 4 4 20 24 28 35 38 42 44 49 52 57 58 57 55 48 48 55
82 76 64 56 50 21 43 46 28 20 13 13 8 10 7 16 8 8 5 5 4 6 6 7 9 6 6 13 13 21 28 33 43 46 46 49 52 55 54 52 47 47 51 54
88 88 36 21 29 65 53 15 7 6 9 9 7 16 7 15 11 5 7 3 5 3 5 13 5 7 13 6 10 21 27 34 40 48 48 52 52 55 52 47 42 43 47 51
90 24 15 65 61 27 10 10 7 7 7 7 11 28 20 12 5 7 4 5 2 2 3 3 6 4 9 6 13 20 27 31 39 38 36 29 41 44 41 42 42 41 45 51
47 52 77 58 17 9 11 4 4 4 8 13 20 26 18 12 11 10 6 4 1 3 9 2 4 5 9 13 17 23 28 34 37 35 23 23 34 32 32 33 38 39 42 50
95 49 15 13 5 7 12 13 4 8 18 18 27 16 10 10 8 9 5 5 4 4 3 6 4 16 10 14 17 24 24 35 35 39 15 19 29 28 32 34 35 39 43 49
14 10 10 4 5 4 3 9 12 20 38 50 41 19 9 9 7 6 6 3 1 4 5 5 17 15 10 16 15 20 25 37 35 40 18 22 29 29 28 34 37 40 45 49
12 12 8 5 11 22 35 48 51 50 54 47 33 18 12 8 7 2 6 3 5 8 6 8 21 10 10 14 16 19 29 30 30 35 25 33 31 28 31 30 37 38 43 48
11 12 12 27 37 29 42 48 49 45 45 32 16 9 6 3 5 5 7 5 7 6 5 22 11 2 5 12 15 16 26 27 22 27 30 27 29 29 32 32 34 35 41 44
10 13 31 26 42 41 37 42 39 45 18 8 9 7 4 10 4 2 5 7 7 13 9 9 2 10 17 16 18 16 20 26 27 26 27 28 28 28 31 35 35 33 39 36
Wind_Direction_850mb
13 16 15 13 12 10 30 42 64 10 65 39 49 53 64 112 62 41 54 52 42 28 27 29 50 37 32 14 348 358 37 316 303 312 86 85 75 28 358 10 306 299 285 287
5 13 18 18 16 17 37 55 37 9 58 68 80 115 84 60 92 33 42 74 41 34 53 43 36 48 49 19 12 20 348 350 316 188 109 132 22 355 326 299 289 285 289 292
358 11 15 17 20 21 41 61 36 25 58 38 108 120 115 106 49 73 62 94 72 66 58 56 55 37 91 40 28 3 281 289 290 266 300 328 312 310 298 274 272 283 295 321
355 2 20 23 25 25 53 64 68 52 21 26 41 45 26 102 92 62 46 57 50 54 56 1 66 39 6 117 58 327 22 288 316 323 300 293 295 335 348 4 347 342 331 334
343 2 4 19 24 33 51 69 78 71 87 72 64 35 48 117 94 19 81 118 97 55 62 25 20 16 46 5 0 350 68 289 322 302 308 336 314 1 357 355 354 336 334 326
3 31 30 32 27 37 63 73 87 78 56 54 350 11 88 124 125 55 55 111 125 91 71 14 2 335 319 313 338 334 346 328 335 289 344 299 75 23 357 346 333 330 334 344
47 40 31 29 31 36 58 82 89 82 85 50 60 107 113 105 28 120 89 60 64 84 345 313 211 92 83 97 66 13 326 346 335 302 335 13 18 22 6 345 329 323 3 327
318 342 0 19 20 19 18 76 94 95 97 107 107 120 102 105 88 94 83 57 70 68 47 54 162 195 186 144 110 64 17 8 343 314 339 277 272 24 4 345 317 6 338 332
267 292 310 330 337 359 358 337 213 118 121 14 130 130 147 150 121 114 103 71 66 65 82 97 348 31 354 71 137 133 116 152 116 333 312 308 17 3 350 326 291 358 335 323
263 270 283 305 320 320 323 297 235 159 106 81 92 103 180 78 129 95 142 161 58 69 312 116 38 76 29 332 333 49 24 22 223 269 260 263 10 353 342 334 321 321 325 324
260 277 277 286 292 295 276 245 216 208 117 75 99 102 80 119 131 162 135 129 110 41 77 284 97 305 71 239 273 80 113 70 262 349 282 299 351 331 354 317 315 321 321 318
264 270 266 274 273 276 253 221 218 192 132 125 139 128 128 119 88 133 149 97 97 102 96 307 69 207 185 22 290 166 213 188 199 174 266 304 309 336 332 333 325 319 314 315
260 263 271 258 265 241 231 199 184 161 98 106 82 72 110 134 142 138 136 123 125 103 91 88 68 107 171 238 245 15 1 81 262 0 242 318 329 326 326 331 322 320 323 322
251 263 266 258 259 229 199 182 169 151 119 98 79 95 136 97 98 122 128 141 124 125 108 84 127 220 159 291 318 286 267 16 308 305 326 324 316 322 326 328 324 322 323 322
244 260 249 239 211 183 173 181 176 162 140 116 129 118 100 107 110 107 106 111 114 107 94 101 222 239 173 239 240 254 70 26 306 312 328 318 314 322 329 325 320 327 330 325
240 237 210 175 178 173 163 144 176 175 141 113 124 115 87 111 119 114 114 118 117 106 106 179 43 40 350 337 289 94 23 351 337 321 322 325 317 320 327 325 329 330 329 331
217 195 180 175 172 173 159 156 162 173 149 117 121 126 150 136 113 97 94 104 112 98 84 328 12 117 195 274 263 6 353 337 330 323 327 327 327 326 328 329 329 333 333 342
198 176 172 166 169 169 132 140 143 146 124 104 111 109 133 150 156 99 107 88 91 75 92 70 310 9 257 257 268 339 334 327 330 325 325 320 323 331 333 336 338 343 346 346
174 163 155 146 142 126 134 135 133 116 98 109 114 147 146 152 114 108 97 116 104 134 215 189 161 207 229 231 294 316 329 327 325 326 325 324 330 332 338 343 347 348 346 347
148 140 132 125 141 136 129 104 76 69 58 81 99 120 113 157 140 106 113 68 84 201 202 133 202 258 232 284 330 335 333 329 326 327 326 326 329 333 341 345 344 347 347 346
140 142 103 136 133 117 86 112 127 136 88 105 97 128 123 116 143 111 66 116 85 277 148 188 216 238 182 4 346 337 337 336 331 323 313 318 328 330 339 343 339 352 348 347
142 127 124 121 136 117 102 66 98 186 150 143 130 109 114 109 104 103 145 114 179 250 159 150 246 136 52 5 341 341 348 345 338 330 327 343 339 340 341 344 347 352 348 350
122 113 135 143 140 98 161 162 180 149 153 147 141 123 117 107 97 91 130 152 212 111 228 223 190 107 47 2 349 340 348 344 348 339 346 6 352 353 348 350 349 352 353 354
97 89 89 111 171 166 162 148 124 129 136 132 126 104 104 119 102 134 134 94 2 261 248 202 100 85 33 4 354 346 340 352 353 350 352 6 4 357 349 353 350 351 353 354
95 99 89 92 108 89 106 117 116 124 130 127 111 86 93 83 102 179 92 137 229 211 256 110 115 108 44 2 353 347 339 352 358 4 17 2 356 353 351 356 339 353 354 358
85 83 89 115 105 116 113 116 112 127 127 116 91 104 99 110 111 124 197 193 219 231 162 124 134 139 9 342 346 348 338 347 343 344 354 349 355 358 350 351 349 3 356 2
68 65 126 112 117 125 128 125 133 138 110 97 118 102 82 117 114 208 189 203 246 82 127 163 192 313 308 310 306 340 331 332 333 333 337 344 348 355 353 358 0 8 351 355